User: anonymous   Login
Location: Innerarity Island Observatory
(30.3139°N, 87.4867°W)
Time: 01:04:25
(UTC-05:00)
Language:

OPAL - Orbit

View from above orbital plane
View from above orbital plane
View from above satellite
View from above satellite

Ground track
Ground track

The orbit data is extracted from the following two-line orbital elements,

1 26063U 00004C   16143.79138845  .00000028  00000-0  29612-4 0  9995
2 26063 100.1893  69.6157 0036204 330.3938  29.5193 14.36617175855322
Epoch (UTC): 22 May 2016 18:59:35
Eccentricity: 0.0036204
inclination: 100.1893°
perigee height: 744 km
apogee height: 795 km
right ascension of ascending node: 69.6157°
argument of perigee: 330.3938°
revolutions per day: 14.36617175
mean anomaly at epoch: 29.5193°
orbit number at epoch: 85532

The dashed part of the orbit path shows where the satellite is in the earth's shadow,  

DLR